Regional Weather Roundup
Issued by NWS

Home | Current Version | Previous Version | Text Only | Print | Product List | Glossary Off
Versions: 1 2 3 4 5 6 7 8 9 10 11 12 13 14 15 16 17 18 19 20 21 22 23 24 25 26 27 28 29 30 31 32 33 34 35 36 37 38 39 40 41 42 43 44 45 46 47 48 49 50

000
ASUS43 KLMK 231110
RWRKY
KENTUCKY REGIONAL WEATHER ROUNDUP
NATIONAL WEATHER SERVICE LOUISVILLE KY
700 AM EDT MON APR 23 2018

NOTE "FAIR" INDICATES FEW OR NO CLOUDS BELOW 12,000 FEET
WITH NO SIGNIFICANT WEATHER AND/OR OBSTRUCTIONS TO VISIBILITY.

KYZ001>023-026-027-061>063-070>075-231200-
WESTERN AND SOUTH CENTRAL KENTUCKY

CITY           SKY/WX    TMP DP  RH WIND       PRES   REMARKS
PADUCAH        LGT RAIN  56  55  97 E12       29.77R FOG
HENDERSON      CLOUDY    53  51  93 NE15      29.91R
OWENSBORO      MOCLDY    55  52  89 E13       29.93R
HOPKINSVILLE   CLOUDY    57  57 100 E9        29.86R
BOWLING GREEN  LGT RAIN  57  55  93 E15       29.94R
GLASGOW        CLOUDY    55  52  89 E13G18    29.96R
$$

KYZ024-025-028>034-038-045-046-053-231200-
NORTH CENTRAL KENTUCKY

CITY           SKY/WX    TMP DP  RH WIND       PRES   REMARKS
LOUISVILLE/SDF LGT RAIN  53  50  89 E8        30.03S
LOUISVILLE/LOU RAIN      53  51  93 E8        30.04R
FORT KNOX      LGT RAIN  53  53 100 E14       30.00S
$$

KYZ035>037-039>044-047>052-055>060-089>105-231200-
NORTHEAST KENTUCKY

CITY           SKY/WX    TMP DP  RH WIND       PRES   REMARKS
LEXINGTON      LGT RAIN  52  47  83 NE8       30.06R
COVINGTON      MOCLDY    54  35  48 E8        30.08R
FRANKFORT      LGT RAIN  51  44  77 E7        30.05R
$$

KYZ054-064>069-076>088-106>120-231200-
SOUTHEAST KENTUCKY

CITY           SKY/WX    TMP DP  RH WIND       PRES   REMARKS
JACKSON        MOCLDY    56  49  77 MISG      30.07F
LONDON         LGT RAIN  54  51  90 E8        30.04R
SOMERSET       LGT RAIN  54  52  94 E6        30.03R
MIDDLESBORO    HVY RAIN  55  51  89 SE7G17    30.08R
MONTICELLO     LGT RAIN  56  52  86 VRB6      30.02R
$$





USA.gov is the U.S. government's official web portal to all federal, state and local government web resources and services.